Weather History for Whitefield, NH

Change the Weather History Date:

Sunday, July 14, 2013

  Actual Average Record
Temperature  
Mean Temperature 74 °F -  
Max Temperature 88 °F 75 °F 90 °F (2012)
Min Temperature 61 °F 48 °F 42 °F (1999)
Cooling Degree Days 10    
Growing Degree Days 24 (Base 50)    
Moisture  
Dew Point 64 °F    
Average Humidity 72    
Maximum Humidity 90    
Minimum Humidity 48    
Precipitation  
Precipitation 0.00 in - - ()
Sea Level Pressure  
Sea Level Pressure 30.29 in    
Wind  
Wind Speed 1 mph (WSW)    
Max Wind Speed 6 mph    
Max Gust Speed -    
Visibility 8 miles    
Events      
Averages and records for this station are not official NWS values.
T = Trace of Precipitation, MM = Missing Value Source: NWS Daily Summary

Daily Weather History Graph

Daily Weather History Graph

Search for Another Location

Airport:

Trip Planner

Search our weather history database for the weather conditions in past years. The results will help you decide how hot, cold, wet, or windy it might be!

Date:

Astronomy

Jul. 14, 2013 Rise Set
Actual Time 5:15 AM EDT 8:28 PM EDT
Civil Twilight 4:39 AM EDT 9:03 PM EDT
Nautical Twilight 3:54 AM EDT 9:49 PM EDT
Astronomical Twilight 2:57 AM EDT 10:45 PM EDT
Moon 11:45 AM EDT (7/14) 11:21 PM EDT (7/14)
Length of Visible Light 16h 23m
Length of Day
15h 13m
Waxing Crescent, 35% of the Moon is Illuminated
Jul 14
Waxing Crescent
Jul 15
First Quarter
Jul 22
Full
Jul 29
Last Quarter
Aug 6
New

Hourly Weather History & Observations

Time (EDT) Temp. Heat Index Dew Point Humidity Pressure Visibility Wind Dir Wind Speed Gust Speed Precip Events Conditions
12:52 AM 64.0 °F - 61.0 °F 90% 30.32 in 7.0 mi Calm Calm - N/A   Clear
1:52 AM 63.0 °F - 60.1 °F 90% 30.31 in 6.0 mi Calm Calm - N/A   Clear
2:52 AM 62.1 °F - 59.0 °F 90% 30.31 in 6.0 mi Calm Calm - N/A   Clear
3:52 AM 61.0 °F - 57.9 °F 90% 30.32 in 7.0 mi Calm Calm - N/A   Mostly Cloudy
4:52 AM 62.1 °F - 59.0 °F 90% 30.32 in 7.0 mi Calm Calm - N/A   Overcast
5:52 AM 63.0 °F - 59.0 °F 87% 30.32 in 6.0 mi Calm Calm - N/A   Overcast
6:52 AM 64.9 °F - 61.0 °F 87% 30.33 in 6.0 mi Calm Calm - N/A   Overcast
7:52 AM 68.0 °F - 63.0 °F 84% 30.33 in 8.0 mi Calm Calm - N/A   Overcast
8:52 AM 71.1 °F - 64.0 °F 78% 30.33 in 9.0 mi Calm Calm - N/A   Overcast
9:52 AM 75.0 °F - 66.0 °F 73% 30.32 in 9.0 mi Calm Calm - N/A   Overcast
10:52 AM 78.1 °F - 66.0 °F 66% 30.32 in 10.0 mi WSW 3.5 mph - N/A   Overcast
11:02 AM 78.8 °F - 66.2 °F 65% 30.33 in 10.0 mi West 3.5 mph - N/A   Overcast
11:33 AM 78.8 °F - 66.2 °F 65% 30.32 in 10.0 mi WSW 3.5 mph - N/A   Overcast
11:52 AM 79.0 °F - 64.9 °F 62% 30.31 in 10.0 mi Calm Calm - N/A   Overcast
12:52 PM 80.1 °F 81.7 °F 64.0 °F 58% 30.30 in 10.0 mi Calm Calm - N/A   Mostly Cloudy
1:52 PM 86.0 °F 88.8 °F 66.9 °F 53% 30.28 in 10.0 mi Variable 3.5 mph - N/A   Partly Cloudy
2:52 PM 86.0 °F 87.6 °F 64.9 °F 49% 30.27 in 10.0 mi Calm Calm - N/A   Clear
3:52 PM 84.0 °F 85.8 °F 64.9 °F 53% 30.25 in 10.0 mi Calm Calm - N/A   Partly Cloudy
4:52 PM 88.0 °F 90.3 °F 66.0 °F 48% 30.24 in 10.0 mi Variable 3.5 mph - N/A   Overcast
5:52 PM 86.0 °F 87.6 °F 64.9 °F 49% 30.23 in 10.0 mi Variable 3.5 mph - N/A   Clear
6:52 PM 84.0 °F 85.8 °F 64.9 °F 53% 30.23 in 10.0 mi WSW 5.8 mph - N/A   Partly Cloudy
7:52 PM 81.0 °F 83.3 °F 66.9 °F 62% 30.23 in 10.0 mi WSW 3.5 mph - N/A   Scattered Clouds
8:52 PM 75.0 °F - 68.0 °F 79% 30.24 in 10.0 mi Calm Calm - N/A   Clear
9:52 PM 72.0 °F - 66.9 °F 84% 30.25 in 7.0 mi South 3.5 mph - N/A   Clear
10:52 PM 69.1 °F - 64.0 °F 84% 30.25 in 7.0 mi Calm Calm - N/A   Clear
11:52 PM 66.0 °F - 63.0 °F 90% 30.25 in 7.0 mi Calm Calm - N/A   Clear